Regional Weather Roundup
Issued by NWS

Home | Current Version | Previous Version | Text Only | Print | Product List | Glossary Off
Versions: 1 2 3 4 5 6 7 8 9 10 11 12 13 14 15 16 17 18 19 20 21 22 23 24 25 26 27 28 29 30 31 32 33 34 35 36 37 38 39 40 41 42 43 44 45 46 47 48 49 50

000
ASUS43 KIND 161800
RWRIN

WEATHER ROUNDUP FOR INDIANA
NATIONAL WEATHER SERVICE INDIANAPOLIS IN
200 PM EDT WED AUG 16 2017

NOTE: "FAIR" INDICATES FEW OR NO CLOUDS BELOW 12,000 FEET WITH NO
SIGNIFICANT WEATHER AND/OR OBSTRUCTIONS TO VISIBILITY.

* - STATION DOES NOT REPORT WEATHER SUCH AS PRECIPITATION OR FOG.

+ - STATION NOT QUALITY CONTROLLED BY THE NATIONAL WEATHER SERVICE.
    USE DATA WITH CAUTION...ESPECIALLY DEWPOINT AND RELATIVE
    HUMIDITY OBSERVATIONS.

INZ001>003-010>013-019-020-161900-
NORTHWEST INDIANA

CITY           SKY/WX    TMP DP  RH WIND       PRES   REMARKS
MICHIGAN CITY+ PTSUNNY   86  70  58 S10G18    29.99F
MONTICELLO +   MOSUNNY   86  68  54 S6        29.99F
6HR MIN TEMP:  67; 6HR MAX TEMP:  87;

RENSSELAER +   PTSUNNY   84  66  54 S12       29.99S

$$

LMZ046-743>745-161900-
SOUTHERN LAKE MICHIGAN

STATION/POSITION TIME  TEMP    WIND        PRES    WAVE
                       AIR SEA DIR/SP/G            HT
                 (UTC) (F)     (DEG/KT/KT) (MB)    (FT)
BURNS HARBOR     1740   78      70/  4/  7 1015.2F
MICHIGAN CITY    1730   82     200/  8/  9   N/A
5NW MICH CITY    1750   76 75   50/  6/  8   N/A     1

$$

INZ004-005-014>016-021>024-161900-
NORTH CENTRAL INDIANA

CITY           SKY/WX    TMP DP  RH WIND       PRES   REMARKS
ELKHART        MOSUNNY   86  66  51 S6        30.01F
GOSHEN         PTSUNNY   85  66  53 SE7       30.01F
6HR MIN TEMP:  65; 6HR MAX TEMP:  85;

SOUTH BEND     SUNNY     86  70  58 S8        30.00F
6HR MIN TEMP:  65; 6HR MAX TEMP:  86; 6HR PCP: TRACE;

WARSAW +       PTSUNNY   84  68  58 CALM      30.02S

$$

INZ006>009-017-018-025>027-161900-
NORTHEAST INDIANA

CITY           SKY/WX    TMP DP  RH WIND       PRES   REMARKS
FORT WAYNE     PTSUNNY   87  65  47 CALM      30.02F
6HR MIN TEMP:  67; 6HR MAX TEMP:  87;

KENDALLVILLE + MOSUNNY   85  66  52 S5        30.04F

$$

INZ028-029-035-036-043>045-051>053-161900-
WEST CENTRAL INDIANA

CITY           SKY/WX    TMP DP  RH WIND       PRES   REMARKS
LAFAYETTE      MOSUNNY   85  71  63 S8        29.98F
6HR MIN TEMP:  68; 6HR MAX TEMP:  86;

TERRE HAUTE    CLOUDY    83  72  69 SE9       30.00S
6HR MIN TEMP:  67; 6HR MAX TEMP:  84;


$$

INZ030>032-037>040-046>048-054>057-064-065-161900-
CENTRAL INDIANA

CITY           SKY/WX    TMP DP  RH WIND       PRES   REMARKS
ANDERSON       MOSUNNY   86  66  51 MISG      30.03F
COLUMBUS       MOSUNNY   84  66  54 S6        30.01F
GREENWOOD *+   PTSUNNY   87  67  50 SE8       30.02F
INDIANAPOLIS   CLOUDY    88  69  53 S7G16     30.00F
6HR MIN TEMP:  71; 6HR MAX TEMP:  88;

-EAGLE CREEK   CLOUDY    87  67  51 S6        30.00F
6HR MIN TEMP:  71; 6HR MAX TEMP:  87;

KOKOMO +       MOSUNNY   85  71  63 S6        30.02F
6HR MIN TEMP:  72; 6HR MAX TEMP:  85;

MT COMFORT *+  CLOUDY    84  70  61 S5        30.03F
SHELBYVILLE    MOSUNNY   87  70  56 VRB7      30.01F
6HR MIN TEMP:  67; 6HR MAX TEMP:  87;


$$

INZ033-034-041-042-049-050-058-059-161900-
EAST CENTRAL INDIANA

CITY           SKY/WX    TMP DP  RH WIND       PRES   REMARKS
MUNCIE         MOSUNNY   88  65  46 S5        30.02F
6HR MIN TEMP:  70; 6HR MAX TEMP:  89;

RICHMOND +     MOSUNNY   84  70  61 S6        30.06S

$$

INZ060-061-067>069-081>083-085>088-161900-
SOUTHWEST INDIANA

CITY           SKY/WX    TMP DP  RH WIND       PRES   REMARKS
EVANSVILLE     CLOUDY    83  73  72 S7        30.00F
6HR MIN TEMP:  72; 6HR MAX TEMP:  83; 6HR PCP: TRACE;

HUNTINGBURG +  CLOUDY    84  75  74 SW7       30.01F
6HR MIN TEMP:  73; 6HR MAX TEMP:  84;


$$

INZ062-063-066-070>080-084-089>092-161900-
SOUTH CENTRAL AND SOUTHEAST INDIANA

CITY           SKY/WX    TMP DP  RH WIND       PRES   REMARKS
BLOOMINGTON    CLOUDY    86  68  54 S9        30.01F
6HR MIN TEMP:  68; 6HR MAX TEMP:  88;

MADISON *+     MOSUNNY   88  68  51 SW5       30.04F
SEYMOUR +      CLOUDY    88  70  55 CALM      30.01F

$$





USA.gov is the U.S. government's official web portal to all federal, state and local government web resources and services.